| time (UTC) | temp C | wind direction | speed KPH | gust KPH | rain 1hr cm | rain 24hr cm | rain mn cm | humidity % | barometer mb |
| 20260504201541 | 21 | 229 | 3.2 | 12.9 | 0.00 | 0.00 | 0.00 | 40 | 1007.0 |
| 20260504201045 | 21 | 100 | 3.2 | 14.5 | 0.00 | 0.00 | 0.00 | 40 | 1006.9 |
| 20260504200541 | 21 | 166 | 4.8 | 14.5 | 0.00 | 0.00 | 0.00 | 39 | 1007.0 |
| 20260504200048 | 21 | 171 | 4.8 | 22.5 | 0.00 | 0.00 | 0.00 | 39 | 1007.0 |
| 20260504195540 | 21 | 169 | 6.4 | 22.5 | 0.00 | 0.00 | 0.00 | 38 | 1007.2 |
| 20260504195039 | 21 | 179 | 6.4 | 17.7 | 0.00 | 0.00 | 0.00 | 38 | 1007.1 |
| 20260504194542 | 21 | 157 | 6.4 | 16.1 | 0.00 | 0.00 | 0.00 | 39 | 1007.0 |
| 20260504194039 | 21 | 188 | 4.8 | 14.5 | 0.00 | 0.00 | 0.00 | 39 | 1007.0 |
| 20260504193539 | 21 | 193 | 6.4 | 16.1 | 0.00 | 0.00 | 0.00 | 38 | 1007.1 |
| 20260504193038 | 21 | 225 | 4.8 | 16.1 | 0.00 | 0.00 | 0.00 | 38 | 1007.0 |
| 20260504192537 | 21 | 209 | 8.0 | 14.5 | 0.00 | 0.00 | 0.00 | 37 | 1007.1 |
| 20260504192037 | 21 | 165 | 4.8 | 16.1 | 0.00 | 0.00 | 0.00 | 39 | 1007.1 |
| 20260504191550 | 21 | 167 | 6.4 | 16.1 | 0.00 | 0.00 | 0.00 | 36 | 1007.0 |
| 20260504191038 | 21 | 206 | 8.0 | 17.7 | 0.00 | 0.00 | 0.00 | 36 | 1007.1 |
| 20260504190539 | 21 | 169 | 6.4 | 22.5 | 0.00 | 0.00 | 0.00 | 36 | 1007.0 |
| 20260504190043 | 21 | 213 | 8.0 | 22.5 | 0.00 | 0.00 | 0.00 | 35 | 1007.2 |
| 20260504185535 | 22 | 161 | 4.8 | 14.5 | 0.00 | 0.00 | 0.00 | 35 | 1007.2 |
| 20260504185034 | 21 | 197 | 4.8 | 14.5 | 0.00 | 0.00 | 0.00 | 36 | 1007.3 |
| 20260504184545 | 22 | 164 | 6.4 | 14.5 | 0.00 | 0.00 | 0.00 | 36 | 1007.3 |
| 20260504184034 | 22 | 209 | 4.8 | 14.5 | 0.00 | 0.00 | 0.00 | 34 | 1007.3 |
| 20260504183533 | 22 | 272 | 4.8 | 16.1 | 0.00 | 0.00 | 0.00 | 33 | 1007.5 |
| 20260504183041 | 22 | 171 | 4.8 | 17.7 | 0.00 | 0.00 | 0.00 | 34 | 1007.4 |
| 20260504182533 | 21 | 154 | 6.4 | 17.7 | 0.00 | 0.00 | 0.00 | 32 | 1007.4 |
| 20260504182033 | 21 | 228 | 3.2 | 17.7 | 0.00 | 0.00 | 0.00 | 35 | 1007.6 |
| 20260504181531 | 21 | 189 | 6.4 | 16.1 | 0.00 | 0.00 | 0.00 | 33 | 1007.6 |
| 20260504181031 | 21 | 242 | 6.4 | 17.7 | 0.00 | 0.00 | 0.00 | 33 | 1007.7 |
| 20260504180532 | 21 | 332 | 8.0 | 17.7 | 0.00 | 0.00 | 0.00 | 34 | 1007.8 |
| 20260504180030 | 21 | 184 | 3.2 | 17.7 | 0.00 | 0.00 | 0.00 | 35 | 1007.8 |
| 20260504175529 | 21 | 195 | 8.0 | 20.9 | 0.00 | 0.00 | 0.00 | 32 | 1007.8 |
| 20260504175032 | 21 | 171 | 6.4 | 20.9 | 0.00 | 0.00 | 0.00 | 32 | 1007.7 |
| 20260504174530 | 21 | 180 | 3.2 | 16.1 | 0.00 | 0.00 | 0.00 | 34 | 1007.6 |
| 20260504174028 | 21 | 187 | 3.2 | 16.1 | 0.00 | 0.00 | 0.00 | 34 | 1007.8 |
| 20260504173527 | 21 | 179 | 6.4 | 17.7 | 0.00 | 0.00 | 0.00 | 35 | 1007.8 |
| 20260504173029 | 21 | 150 | 4.8 | 17.7 | 0.00 | 0.00 | 0.00 | 32 | 1007.7 |
| 20260504172526 | 21 | 3 | 4.8 | 19.3 | 0.00 | 0.00 | 0.00 | 33 | 1007.7 |
| 20260504172027 | 21 | 196 | 9.7 | 19.3 | 0.00 | 0.00 | 0.00 | 33 | 1007.8 |
| 20260504171525 | 21 | 221 | 4.8 | 12.9 | 0.00 | 0.00 | 0.00 | 34 | 1007.8 |
| 20260504171025 | 21 | 170 | 4.8 | 12.9 | 0.00 | 0.00 | 0.00 | 33 | 1007.9 |
| 20260504170525 | 21 | 197 | 6.4 | 17.7 | 0.00 | 0.00 | 0.00 | 34 | 1007.8 |
| 20260504151006 | 18 | 188 | 3.2 | 11.3 | 0.00 | 0.00 | 0.00 | 39 | 1009.1 |
| 20260504150509 | 18 | 218 | 1.6 | 17.7 | 0.00 | 0.00 | 0.00 | 42 | 1009.1 |
| 20260504141055 | 17 | 113 | 1.6 | 8.0 | 0.00 | 0.00 | 0.00 | 43 | 1009.9 |
| 20260504140555 | 17 | 240 | 1.6 | 9.7 | 0.00 | 0.00 | 0.00 | 43 | 1009.8 |
| 20260504130542 | 15 | 179 | 0.0 | 8.0 | 0.00 | 0.00 | 0.00 | 49 | 1010.1 |
| 20260504110513 | 9 | 12 | 0.0 | 1.6 | 0.00 | 0.00 | 0.00 | 65 | 1010.3 |
| 20260504100503 | 5 | 163 | 0.0 | 0.0 | 0.00 | 0.00 | 0.00 | 75 | 1010.2 |
| 20260504081557 | 7 | 163 | 0.0 | 0.0 | 0.00 | 0.00 | 0.00 | 66 | 1009.7 |
| 20260504081059 | 7 | 163 | 0.0 | 0.0 | 0.00 | 0.00 | 0.00 | 65 | 1009.9 |
| 20260504080554 | 7 | 164 | 0.0 | 0.0 | 0.00 | 0.00 | 0.00 | 66 | 1009.8 |
| 20260504050523 | 4 | 159 | 0.0 | 0.0 | 0.00 | 0.00 | 0.00 | 71 | 1009.7 |
| 20260504050022 | 4 | 159 | 0.0 | 0.0 | 0.00 | 0.00 | 0.00 | 72 | 1009.7 |
| 20260504045521 | 4 | 159 | 0.0 | 0.0 | 0.00 | 0.00 | 0.00 | 73 | 1009.7 |
| 20260504045026 | 4 | 159 | 0.0 | 0.0 | 0.00 | 0.00 | 0.00 | 73 | 1009.8 |
| 20260504044525 | 4 | 159 | 0.0 | 0.0 | 0.00 | 0.00 | 0.00 | 73 | 1009.8 |
| 20260504044018 | 4 | 159 | 0.0 | 0.0 | 0.00 | 0.00 | 0.00 | 73 | 1009.8 |
| 20260504043517 | 4 | 159 | 0.0 | 0.0 | 0.00 | 0.00 | 0.00 | 72 | 1009.8 |
| 20260504043016 | 4 | 159 | 0.0 | 0.0 | 0.00 | 0.00 | 0.00 | 73 | 1009.8 |
| 20260504042515 | 4 | 159 | 0.0 | 0.0 | 0.00 | 0.00 | 0.00 | 74 | 1009.7 |
| 20260504042014 | 4 | 159 | 0.0 | 0.0 | 0.00 | 0.00 | 0.00 | 75 | 1009.6 |
| 20260504041511 | 4 | 159 | 0.0 | 0.0 | 0.00 | 0.00 | 0.00 | 75 | 1009.5 |
| 20260504041011 | 4 | 159 | 0.0 | 0.0 | 0.00 | 0.00 | 0.00 | 75 | 1009.5 |
| 20260504040509 | 4 | 159 | 0.0 | 0.0 | 0.00 | 0.00 | 0.00 | 74 | 1009.5 |
| 20260504040008 | 5 | 159 | 0.0 | 0.0 | 0.00 | 0.00 | 0.00 | 74 | 1009.6 |
| 20260504035507 | 5 | 159 | 0.0 | 0.0 | 0.00 | 0.00 | 0.00 | 73 | 1009.5 |
| 20260504035006 | 5 | 159 | 0.0 | 0.0 | 0.00 | 0.00 | 0.00 | 72 | 1009.4 |
| 20260504034505 | 5 | 159 | 0.0 | 0.0 | 0.00 | 0.00 | 0.00 | 71 | 1009.4 |
| 20260504034004 | 5 | 159 | 0.0 | 0.0 | 0.00 | 0.00 | 0.00 | 71 | 1009.3 |
| 20260504033504 | 5 | 159 | 0.0 | 0.0 | 0.00 | 0.00 | 0.00 | 70 | 1009.3 |
| 20260504033003 | 5 | 159 | 0.0 | 0.0 | 0.00 | 0.00 | 0.00 | 71 | 1009.2 |
| 20260504032503 | 5 | 159 | 0.0 | 0.0 | 0.00 | 0.00 | 0.00 | 71 | 1009.2 |
| 20260504032001 | 5 | 159 | 0.0 | 0.0 | 0.00 | 0.00 | 0.00 | 70 | 1009.2 |
| 20260504031604 | 5 | 159 | 0.0 | 0.0 | 0.00 | 0.00 | 0.00 | 70 | 1009.2 |
| 20260504031059 | 5 | 159 | 0.0 | 0.0 | 0.00 | 0.00 | 0.00 | 70 | 1009.1 |
| 20260504030559 | 5 | 159 | 0.0 | 0.0 | 0.00 | 0.00 | 0.00 | 68 | 1009.1 |
| 20260504030104 | 5 | 159 | 0.0 | 0.0 | 0.00 | 0.00 | 0.00 | 69 | 1009.1 |
| 20260504025558 | 5 | 159 | 0.0 | 0.0 | 0.00 | 0.00 | 0.00 | 70 | 1009.0 |
| 20260504025057 | 5 | 159 | 0.0 | 0.0 | 0.00 | 0.00 | 0.00 | 71 | 1009.1 |
| 20260504024556 | 5 | 159 | 0.0 | 0.0 | 0.00 | 0.00 | 0.00 | 71 | 1009.0 |
| 20260504024102 | 5 | 159 | 0.0 | 0.0 | 0.00 | 0.00 | 0.00 | 70 | 1009.0 |
| 20260504023556 | 5 | 159 | 0.0 | 0.0 | 0.00 | 0.00 | 0.00 | 71 | 1009.0 |
| 20260504023103 | 6 | 159 | 0.0 | 0.0 | 0.00 | 0.00 | 0.00 | 71 | 1009.0 |
| 20260504022558 | 5 | 159 | 0.0 | 0.0 | 0.00 | 0.00 | 0.00 | 71 | 1009.0 |
| 20260504022054 | 5 | 159 | 0.0 | 0.0 | 0.00 | 0.00 | 0.00 | 70 | 1009.0 |
| 20260504021554 | 6 | 159 | 0.0 | 0.0 | 0.00 | 0.00 | 0.00 | 69 | 1009.0 |
| 20260504021053 | 6 | 159 | 0.0 | 0.0 | 0.00 | 0.00 | 0.00 | 68 | 1009.0 |
| 20260504020553 | 6 | 159 | 0.0 | 0.0 | 0.00 | 0.00 | 0.00 | 65 | 1009.0 |
| 20260504020058 | 6 | 159 | 0.0 | 0.0 | 0.00 | 0.00 | 0.00 | 65 | 1008.9 |
| 20260504015551 | 6 | 159 | 0.0 | 0.0 | 0.00 | 0.00 | 0.00 | 62 | 1009.0 |
| 20260504015050 | 6 | 159 | 0.0 | 0.0 | 0.00 | 0.00 | 0.00 | 61 | 1008.9 |
| 20260504014550 | 6 | 159 | 0.0 | 0.0 | 0.00 | 0.00 | 0.00 | 61 | 1008.9 |
| 20260504014047 | 6 | 159 | 0.0 | 0.0 | 0.00 | 0.00 | 0.00 | 62 | 1008.8 |
| 20260504013547 | 7 | 159 | 0.0 | 0.0 | 0.00 | 0.00 | 0.00 | 62 | 1008.8 |
| 20260504013054 | 7 | 159 | 0.0 | 0.0 | 0.00 | 0.00 | 0.00 | 61 | 1008.7 |
| 20260504012645 | 7 | 159 | 0.0 | 0.0 | 0.00 | 0.00 | 0.00 | 60 | 1008.6 |
| 20260504012046 | 7 | 159 | 0.0 | 0.0 | 0.00 | 0.00 | 0.00 | 58 | 1008.6 |
| 20260504011544 | 8 | 159 | 0.0 | 0.0 | 0.00 | 0.00 | 0.00 | 57 | 1008.5 |
| 20260504011042 | 8 | 159 | 0.0 | 0.0 | 0.00 | 0.00 | 0.00 | 56 | 1008.4 |
| 20260504010542 | 8 | 159 | 0.0 | 0.0 | 0.00 | 0.00 | 0.00 | 55 | 1008.3 |
| 20260504010051 | 8 | 159 | 0.0 | 0.0 | 0.00 | 0.00 | 0.00 | 56 | 1008.3 |
| 20260504005542 | 8 | 159 | 0.0 | 0.0 | 0.00 | 0.00 | 0.00 | 55 | 1008.2 |
| 20260504005042 | 9 | 159 | 0.0 | 0.0 | 0.00 | 0.00 | 0.00 | 52 | 1008.1 |
| 20260504004557 | 9 | 159 | 0.0 | 0.0 | 0.00 | 0.00 | 0.00 | 52 | 1008.1 |
| 20260504004041 | 9 | 159 | 0.0 | 0.0 | 0.00 | 0.00 | 0.00 | 51 | 1008.0 |
| 20260504003541 | 10 | 159 | 0.0 | 0.0 | 0.00 | 0.00 | 0.00 | 48 | 1007.9 |
| 20260504003041 | 10 | 159 | 0.0 | 0.0 | 0.00 | 0.00 | 0.00 | 47 | 1007.9 |
| 20260504002542 | 10 | 159 | 0.0 | 0.0 | 0.00 | 0.00 | 0.00 | 46 | 1007.9 |
| 20260504002041 | 10 | 159 | 0.0 | 0.0 | 0.00 | 0.00 | 0.00 | 44 | 1007.8 |
| 20260504001541 | 10 | 159 | 0.0 | 1.6 | 0.00 | 0.00 | 0.00 | 44 | 1007.7 |
| 20260504001042 | 10 | 160 | 0.0 | 1.6 | 0.00 | 0.00 | 0.00 | 43 | 1007.7 |
| 20260504000541 | 11 | 160 | 0.0 | 3.2 | 0.00 | 0.00 | 0.00 | 43 | 1007.6 |
| 20260504000041 | 11 | 353 | 0.0 | 3.2 | 0.00 | 0.00 | 0.00 | 42 | 1007.6 |
| 20260503235540 | 11 | 360 | 0.0 | 8.0 | 0.00 | 0.00 | 0.00 | 42 | 1007.6 |
| 20260503235041 | 11 | 351 | 0.0 | 8.0 | 0.00 | 0.00 | 0.00 | 42 | 1007.5 |
| 20260503234543 | 11 | 352 | 0.0 | 8.0 | 0.00 | 0.00 | 0.00 | 42 | 1007.4 |
| 20260503234040 | 11 | 7 | 0.0 | 8.0 | 0.00 | 0.00 | 0.00 | 41 | 1007.4 |
| 20260503233543 | 11 | 13 | 1.6 | 8.0 | 0.00 | 0.00 | 0.00 | 40 | 1007.3 |
| 20260503233040 | 11 | 353 | 0.0 | 8.0 | 0.00 | 0.00 | 0.00 | 41 | 1007.3 |
| 20260503232543 | 11 | 160 | 0.0 | 8.0 | 0.00 | 0.00 | 0.00 | 40 | 1007.3 |
| 20260503232039 | 12 | 80 | 1.6 | 11.3 | 0.00 | 0.00 | 0.00 | 39 | 1007.3 |
| 20260503231539 | 12 | 346 | 1.6 | 16.1 | 0.00 | 0.00 | 0.00 | 39 | 1007.2 |
| 20260503231039 | 12 | 8 | 3.2 | 16.1 | 0.00 | 0.00 | 0.00 | 39 | 1007.1 |
| 20260503230539 | 12 | 58 | 0.0 | 17.7 | 0.00 | 0.00 | 0.00 | 39 | 1007.1 |
| 20260503230040 | 12 | 7 | 4.8 | 17.7 | 0.00 | 0.00 | 0.00 | 38 | 1006.9 |
| 20260503225538 | 12 | 358 | 3.2 | 17.7 | 0.00 | 0.00 | 0.00 | 40 | 1006.8 |
| 20260503225038 | 12 | 19 | 3.2 | 16.1 | 0.00 | 0.00 | 0.00 | 39 | 1006.7 |
| 20260503224537 | 12 | 6 | 1.6 | 24.1 | 0.00 | 0.00 | 0.00 | 40 | 1006.6 |
| 20260503224038 | 12 | 159 | 3.2 | 24.1 | 0.00 | 0.00 | 0.00 | 38 | 1006.6 |
| 20260503223536 | 12 | 338 | 4.8 | 17.7 | 0.00 | 0.00 | 0.00 | 38 | 1006.6 |
| 20260503223036 | 12 | 151 | 4.8 | 20.9 | 0.00 | 0.00 | 0.00 | 38 | 1006.4 |
| 20260503222534 | 12 | 2 | 3.2 | 20.9 | 0.00 | 0.00 | 0.00 | 39 | 1006.4 |
| 20260503222034 | 12 | 1 | 4.8 | 14.5 | 0.00 | 0.00 | 0.00 | 37 | 1006.3 |
| 20260503221541 | 12 | 13 | 4.8 | 12.9 | 0.00 | 0.00 | 0.00 | 38 | 1006.3 |
| 20260503221034 | 13 | 5 | 3.2 | 12.9 | 0.00 | 0.00 | 0.00 | 38 | 1006.2 |
| 20260503220534 | 12 | 6 | 1.6 | 11.3 | 0.00 | 0.00 | 0.00 | 39 | 1006.1 |
| 20260503220034 | 12 | 330 | 3.2 | 11.3 | 0.00 | 0.00 | 0.00 | 39 | 1006.1 |
| 20260503215534 | 12 | 1 | 1.6 | 16.1 | 0.00 | 0.00 | 0.00 | 39 | 1006.1 |
| 20260503215033 | 12 | 357 | 4.8 | 16.1 | 0.00 | 0.00 | 0.00 | 39 | 1006.0 |
| 20260503214534 | 12 | 16 | 3.2 | 16.1 | 0.00 | 0.00 | 0.00 | 41 | 1005.9 |
| 20260503214035 | 12 | 356 | 3.2 | 17.7 | 0.00 | 0.00 | 0.00 | 38 | 1005.9 |
| 20260503213532 | 12 | 354 | 4.8 | 17.7 | 0.00 | 0.00 | 0.00 | 39 | 1005.9 |
| 20260503213041 | 12 | 11 | 4.8 | 16.1 | 0.00 | 0.00 | 0.00 | 39 | 1005.8 |
| 20260503212532 | 12 | 17 | 4.8 | 16.1 | 0.00 | 0.00 | 0.00 | 38 | 1005.7 |
| 20260503212032 | 12 | 13 | 3.2 | 11.3 | 0.00 | 0.00 | 0.00 | 38 | 1005.6 |
| 20260503211531 | 13 | 340 | 3.2 | 17.7 | 0.00 | 0.00 | 0.00 | 39 | 1005.6 |
| 20260503211031 | 13 | 8 | 6.4 | 17.7 | 0.00 | 0.00 | 0.00 | 38 | 1005.4 |
| 20260503210530 | 12 | 3 | 9.7 | 22.5 | 0.00 | 0.00 | 0.00 | 37 | 1005.4 |
| 20260503210030 | 12 | 10 | 4.8 | 22.5 | 0.00 | 0.00 | 0.00 | 39 | 1005.3 |
| 20260503205530 | 12 | 31 | 6.4 | 20.9 | 0.00 | 0.00 | 0.00 | 39 | 1005.2 |
| 20260503205030 | 12 | 288 | 4.8 | 17.7 | 0.00 | 0.00 | 0.00 | 39 | 1005.1 |
| 20260503204544 | 12 | 172 | 3.2 | 14.5 | 0.00 | 0.00 | 0.00 | 40 | 1005.2 |
| 20260503204029 | 12 | 128 | 4.8 | 14.5 | 0.00 | 0.00 | 0.00 | 41 | 1005.0 |
| 20260503203529 | 12 | 19 | 3.2 | 14.5 | 0.00 | 0.00 | 0.00 | 40 | 1005.0 |
| 20260503203131 | 12 | 215 | 3.2 | 12.9 | 0.00 | 0.00 | 0.00 | 40 | 1004.9 |
| 20260503202528 | 12 | 337 | 3.2 | 22.5 | 0.00 | 0.00 | 0.00 | 40 | 1004.8 |
| 20260503202029 | 12 | 188 | 3.2 | 22.5 | 0.00 | 0.00 | 0.00 | 39 | 1004.8 |